This is the latest recevied weather packets stored in our database for station/object N7CEE-2. If no packets are shown the sender has not sent any weather packets the latest 10 day(s).
| Time | Temp. | Humidity | Pressure | Rain* | Wind** | Luminosity | Snow |
|---|---|---|---|---|---|---|---|
| 1777570151 | 29.44° C | 19% | 1012.3 hPa | 0 mm | - | 841 W/m² | - |
| 1777569847 | 28.33° C | 19% | 1012.4 hPa | 0 mm | - | 827 W/m² | - |
| 1777569544 | 27.22° C | 19% | 1012.4 hPa | 0 mm | - | 810 W/m² | - |
| 1777569240 | 27.78° C | 19% | 1012.6 hPa | 0 mm | - | 799 W/m² | - |
| 1777568936 | 27.22° C | 19% | 1012.5 hPa | 0 mm | - | 786 W/m² | - |
| 1777568632 | 26.67° C | 20% | 1012.4 hPa | 0 mm | - | 770 W/m² | - |
| 1777568330 | 26.67° C | 20% | 1012.5 hPa | 0 mm | - | 754 W/m² | - |
| 1777568026 | 26.67° C | 20% | 1012.5 hPa | 0 mm | - | 737 W/m² | - |
| 1777567723 | 26.67° C | 20% | 1012.4 hPa | 0 mm | - | 726 W/m² | - |
| 1777567420 | 27.22° C | 20% | 1012.7 hPa | 0 mm | - | 708 W/m² | - |
| 1777567118 | 27.22° C | 19% | 1012.5 hPa | 0 mm | - | 690 W/m² | - |
| 1777566816 | 26.67° C | 20% | 1012.7 hPa | 0 mm | - | 678 W/m² | - |
| 1777566513 | 26.67° C | 20% | 1012.7 hPa | 0 mm | - | 660 W/m² | - |
| 1777566211 | 26.67° C | 21% | 1012.8 hPa | 0 mm | - | 641 W/m² | - |
| 1777565907 | 25.56° C | 22% | 1013 hPa | 0 mm | - | 622 W/m² | - |
| 1777565603 | 25.56° C | 22% | 1012.9 hPa | 0 mm | - | 607 W/m² | - |
| 1777565300 | 25° C | 23% | 1013 hPa | 0 mm | - | 587 W/m² | - |
| 1777564995 | 25° C | 22% | 1012.8 hPa | 0 mm | - | 567 W/m² | - |
| 1777564691 | 25° C | 23% | 1013.1 hPa | 0 mm | - | 547 W/m² | - |
| 1777564386 | 25° C | 23% | 1013.1 hPa | 0 mm | - | 529 W/m² | - |
| 1777564083 | 24.44° C | 23% | 1012.9 hPa | 0 mm | - | 511 W/m² | - |
| 1777563779 | 23.89° C | 23% | 1013.1 hPa | 0 mm | - | 490 W/m² | - |
| 1777563475 | 23.89° C | 23% | 1013.1 hPa | 0 mm | - | 469 W/m² | - |
| 1777563175 | 23.89° C | 23% | 1013.1 hPa | 0 mm | - | 453 W/m² | - |
| 1777562871 | 23.89° C | 23% | 1012.9 hPa | 0 mm | - | 430 W/m² | - |
* Rain latest hour (hover to see other rain measurements)
** Current wind speed in m/s (hover to see current wind gust speed)